Regional Weather Roundup
Issued by NWS Upton, NY

Current Version | Previous Version | Text Only | Print | Product List | Glossary On
Versions: 1 2 3 4 5 6 7 8 9 10 11 12 13 14 15 16 17 18 19 20 21 22 23 24 25 26 27 28 29 30 31 32 33 34 35 36 37 38 39 40 41 42 43 44 45 46
000
ASUS41 KOKX 251605
RWROKX

REGIONAL WEATHER ROUNDUP
NATIONAL WEATHER SERVICE NEW YORK NY
1100 AM EST THU DEC 25 2014

NOTE: "FAIR" INDICATES FEW OR NO CLOUDS BELOW 12,000 FEET WITH NO
SIGNIFICANT WEATHER AND/OR OBSTRUCTIONS TO VISIBILITY.

NYZ071-072-176-178-NJZ106-104-251700-
NEW YORK CITY METRO AREA


CITY           SKY/WX    TMP DP  RH WIND       PRES   REMARKS
CENTRAL PARK   PTSUNNY   50  28  42 W13G26    29.78R
LAGUARDIA APRT CLOUDY    50  29  44 W24G33    29.75R
KENNEDY INTL   CLOUDY    52  32  46 W21G32    29.77R
NEWARK/LIBERTY PTSUNNY   51  32  48 W22G31    29.77R
BRNX BOT. GARD   N/A     50  32  50 SW14      29.77R
TETERBORO      PTSUNNY   49  35  58 NW20G28   29.75R
$$

NYZ177-179-078>081-251700-
LONG ISLAND NEW YORK

CITY           SKY/WX    TMP DP  RH WIND       PRES   REMARKS
FARMINGDALE    CLOUDY    50  34  54 NW14G28   29.73R
ISLIP          CLOUDY    51  38  60 W14       29.69R
SHIRLEY        CLOUDY    51  39  63 W13G21    29.71R
WESTHAMPTON    CLOUDY    50  40  68 W18G24    29.71R
MONTAUK POINT    N/A     50  42  74 W13G21    29.68R
$$

NYZ052-065-067-251700-
HUDSON VALLEY

CITY           SKY/WX    TMP DP  RH WIND       PRES   REMARKS
WHITE PLAINS   PTSUNNY   49  32  52 W20G26    29.71R
NEWBURGH       MOSUNNY   48  36  61 W23G35    29.71R
MONTGOMERY     MOSUNNY   50  31  48 W16G26    29.71R
POUGHKEEPSIE   PTSUNNY   51  33  50 W18G28    29.70R
ALBANY         PTSUNNY   51  33  50 W22G35    29.65R
$$

NJZ001-105-106-008-010-013-015-019>022-104-251700-
NEW JERSEY

CITY           SKY/WX    TMP DP  RH WIND       PRES   REMARKS
NEWARK/LIBERTY PTSUNNY   51  32  48 W22G31    29.77R
TETERBORO      PTSUNNY   49  35  58 NW20G28   29.75R
CALDWELL       MOSUNNY   50  28  42 NW20G26   29.77R
MORRISTOWN     MOSUNNY   54  34  47 NW14G30   29.78R
SOMERVILLE     MOSUNNY   50  31  48 W12G25    29.78R
SUSSEX         MOSUNNY   48  30  49 W13G22    29.75R
ANDOVER        NOT AVBL
TRENTON        MOSUNNY   50  31  48 W18G29    29.81R
MILLVILLE      PTSUNNY   51  34  52 W28G37    29.86R
ATLANTIC CITY  CLOUDY    49  40  71 W16G26    29.83R
WRIGHTSTOWN    PTSUNNY   51  36  55 NW18      29.80R
TOMS RIVER     CLOUDY    52  37  58 NW16G28   29.81R
BELMAR         CLOUDY    50  30  46 NW25G37   29.78R
$$

PAZ047>061-062-071-251700-
EASTERN PENNSYLVANIA

CITY           SKY/WX    TMP DP  RH WIND       PRES   REMARKS
PHILADELPHIA   MOSUNNY   52  33  48 W20G35    29.86R
ALLENTOWN      PTSUNNY   49  31  49 W18G25    29.81R
SCRANTON       CLOUDY    45  32  60 W15       29.77R
$$

CTZ002-004>006-009-010-012-RIZ004-006-007-MAZ004-011-015-251700-
SOUTHERN NEW ENGLAND
 IN CT

CITY           SKY/WX    TMP DP  RH WIND       PRES   REMARKS
BRADLEY INTL   CLOUDY    51  41  68 W7        29.63R
HARTFORD       CLOUDY    52  40  63 SW13      29.65R
DANBURY        PTSUNNY   50  33  52 W14G22    29.70R
WTRBRY/OXFORD  MOSUNNY  N/A N/A N/A W9G22     29.68R
BRIDGEPORT     CLOUDY    51  38  60 W21G28    29.69R
MERIDEN        CLOUDY    50  37  61 W13G18    29.67R
NEW HAVEN      CLOUDY    53  37  54 W10G18    29.68R
CHESTER        FAIR      48  39  71 W10G16    29.66S
GROTON         CLOUDY    49  42  77 W12       29.65R
WILLIMANTIC    CLOUDY    51  41  68 W13       29.64R

 IN RI

CITY           SKY/WX    TMP DP  RH WIND       PRES   REMARKS
PROVIDENCE     CLOUDY    52  43  71 W14G23    29.61R
BLOCK ISLAND   CLOUDY    48  41  76 W20G29    29.65R
WESTERLY       CLOUDY    50  44  80 W8        29.65R

 IN MA

CITY           SKY/WX    TMP DP  RH WIND       PRES   REMARKS
BOSTON         CLOUDY    52  43  71 W15G26    29.57R
WORCESTER      CLOUDY    46  37  71 W18G30    29.59R
WESTFIELD      CLOUDY    52  31  44 W18G28    29.62S
PROVINCETOWN   CLOUDY    54  48  82 SW20G28   29.57R
NANTUCKET      CLOUDY    51  50  96 SW17      29.63S FOG
$$

ANZ330-335-338-340-345-350-353-355-251700-
COASTAL MARINE OBSERVATIONS


STATION/POSITION TIME  SKY/WX   TEMP    WIND        PRES    VSBY  WAVE
                                AIR SEA DIR/SP/G                  HT/PER
                 (UTC)          (F)     (DEG/KT/KT) (MB)    (MI)  (FT/S)
NY HARB ENTRANCE 1600            49 47  280/ 21/ 29 1008.1          5/ 7
4S FIRE IS       1600               47                N/A           6/ 8
20S FIRE ISLAND  1500            48 50              1006.6          7/ 9
23SW MTP         1600                                 N/A           8/ 8
HUDSON CANYON    1600            50 56  300/ 25/ 29 1007.1          7/ 8
EXECUTION ROCKS  1600            49 42  280/ 19/ 27   N/A
WESTERN LI SOUND 1600            49     280/ 17/ 23   N/A           1/ 3
CENTRAL LI SOUND 1500            47 44  270/ 16/ 19   N/A           2/ 4
EASTERN LI SOUND NOT AVBL
ROBBINS REEF     1600            49                 1006.6
$$


>>>>>>>>>>>>>>>>>>>>>>>>>>>> KEY <<<<<<<<<<<<<<<<<<<<<<<<<<<
>                                                          <
>     SKY/WX - SKY CONDITION/PRESENT WEATHER               <
>     TMP    - TEMPERATURE IN FAHRENHEIT                   <
>     DP     - DEWPOINT IN FAHRENHEIT                      <
>     RH     - RELATIVE HUMIDITY IN PERCENT                <
>     WIND   - DIRECTION AND SPEED IN MPH                  <
>     PRES   - MEAN SEA LEVEL PRESSURE IN INCHES OF HG     <
>     WCI    - WIND CHILL INDEX                            <
>     VSB    - VISIBILITY IN MILES                         <
>     HX     - HEAT INDEX                                  <
>     TC     - TEMPERATURE IN CELSIUS                      <
>     VRB    - VARIABLE WIND DIRECTION                     <
>                                                          <
>>>>>>>>>>>>>>>>>>>>>>>>>>>> KEY <<<<<<<<<<<<<<<<<<<<<<<<<<<





USA.gov is the U.S. government's official web portal to all federal, state and local government web resources and services.